Location: Sommers-Bausch Observatory
(40.0037°N, 105.2635°W)
Time: 07:52:49
(UTC-06:00)

Amateur Radio Satellites - All Passes

Search period start: 04 August 2015 07:22
Search period end: 05 August 2015 07:22
Location: Sommers-Bausch Observatory, 40.0037°N, 105.2635°W

Satellite Date Start Highest point End Downlink Frequencies (MHz)
Time Altitude Azimuth
STRAND 1 04 Aug 07:35:33 07:40:38 60° 259° (W) 07:45:43 437.568
GONETS M04 04 Aug 07:35:34 07:43:30 37° 289° (WNW) 07:51:18
BRITE-PL 04 Aug 07:42:43 07:45:27 16° 92° (E) 07:48:29 437.365/2234.400
BEESAT 3 04 Aug 07:44:07 07:48:06 54° 55° (NE) 07:52:00 437.485
Cubesat XI-IV 04 Aug 08:00:35 08:05:44 49° 289° (WNW) 08:10:49 437.490
SO-50 04 Aug 08:15:10 08:19:20 32° 114° (ESE) 08:23:41 436.795
PRISM 04 Aug 08:35:58 08:38:17 14° 269° (W) 08:40:25 437.425
HO-68 04 Aug 08:36:57 08:42:34 25° 92° (E) 08:48:25 435.675
PCSat 04 Aug 08:44:12 08:49:35 73° 115° (ESE) 08:55:01 145.827
DOVE 4 04 Aug 08:44:30 08:48:29 27° 95° (E) 08:52:45 437.250
BEESAT 2 04 Aug 08:47:20 08:51:09 39° 244° (WSW) 08:54:52 435.950
Cosmos 2499 04 Aug 08:48:12 08:55:23 46° 286° (WNW) 09:03:05 435.465 / 435.565
CUTE-I 04 Aug 08:56:50 09:00:14 17° 297° (WNW) 09:03:23 437.470
COMPASS 1 04 Aug 08:58:20 09:00:54 16° 91° (E) 09:03:37 437.405
AIST 2 04 Aug 09:05:35 09:09:47 68° 56° (ENE) 09:13:53 435.215
GOMX 1 04 Aug 09:12:33 09:17:12 85° 100° (E) 09:22:11 467.674
M-CUBED/EXP-1 PRIME 04 Aug 09:15:04 09:19:02 46° 67° (ENE) 09:23:22 437.505
SEEDS 04 Aug 09:18:14 09:22:08 35° 96° (E) 09:26:01 437.485
BRITE-PL 04 Aug 09:19:54 09:24:13 48° 286° (WNW) 09:28:50 437.365/2234.400
BEESAT 3 04 Aug 09:23:49 09:25:36 12° 250° (WSW) 09:27:12 437.485
RS-15 04 Aug 09:24:17 09:30:41 15° 261° (W) 09:36:03 29.354- 29.394
CUTE 1.7 + AOD 2 04 Aug 09:26:37 09:30:51 55° 99° (E) 09:35:03 437.475
CANX-2 04 Aug 09:35:31 09:39:51 80° 102° (ESE) 09:44:07 2200.000
AAUSAT CUBESAT 2 04 Aug 09:35:38 09:39:30 36° 97° (E) 09:43:22 437.432
FUNcube-1 04 Aug 09:39:49 09:41:07 11° 88° (E) 09:42:42 145.935
AUBIESAT-1 04 Aug 09:40:46 09:44:54 78° 71° (ENE) 09:49:23 437.475
Oscar 11 04 Aug 09:44:51 09:48:05 21° 93° (E) 09:51:23 145.826/435.025
UWE-3 04 Aug 09:49:52 09:53:19 21° 92° (E) 09:56:54 435.000/436.395/437.385
UNISAT 6 04 Aug 09:51:58 09:55:17 22° 68° (ENE) 09:58:46 437.425
SO-50 04 Aug 09:55:32 09:59:52 32° 312° (NW) 10:04:16 436.795
O/OREOS (USA 219) 04 Aug 09:56:00 09:58:47 16° 54° (NE) 10:01:43 437.305
CINEMA 3 04 Aug 10:04:53 10:09:41 83° 103° (ESE) 10:14:37 145.822/145.860
CUBEBUG 2 04 Aug 10:12:10 10:16:40 46° 98° (E) 10:21:15 437.445
DOVE 4 04 Aug 10:22:03 10:26:14 31° 289° (WNW) 10:30:34 437.250
HO-68 04 Aug 10:23:45 10:30:48 60° 290° (WNW) 10:37:49 435.675
PCSat 04 Aug 10:29:48 10:33:38 19° 316° (NW) 10:37:20 145.827
DELFI C3 04 Aug 10:31:43 10:35:36 45° 98° (E) 10:39:29 145.870
TIGRISAT 04 Aug 10:32:40 10:36:55 57° 74° (ENE) 10:41:19 435.000
COMPASS 1 04 Aug 10:32:49 10:36:47 40° 287° (WNW) 10:40:42 437.405
ANTELSAT 04 Aug 10:35:59 10:40:18 65° 75° (ENE) 10:44:46 437.575/2403.000
POLYITAN 1 04 Aug 10:41:28 10:45:01 28° 70° (ENE) 10:48:38 437.675
BUGSAT 1 04 Aug 10:42:57 10:45:28 17° 67° (ENE) 10:48:08 437.445
AIST 2 04 Aug 10:46:54 10:47:49 10° 251° (WSW) 10:48:30 435.215
AIST 1 04 Aug 10:48:44 10:49:20 10° 86° (E) 10:50:13
M-CUBED/EXP-1 PRIME 04 Aug 10:51:37 10:54:12 15° 266° (W) 10:56:42 437.505
ZACube-1 04 Aug 10:53:20 10:57:56 76° 102° (ESE) 11:02:32 437.345
GOMX 1 04 Aug 10:53:53 10:54:52 10° 296° (WNW) 10:55:35 467.674
SEEDS 04 Aug 10:54:35 10:57:42 20° 292° (WNW) 11:00:41 437.485
POPSAT HIP 1 04 Aug 10:56:38 11:00:31 39° 72° (ENE) 11:04:29 437.405
CUTE 1.7 + AOD 2 04 Aug 11:04:12 11:06:20 13° 295° (WNW) 11:08:17 437.475
QB50P2 04 Aug 11:05:03 11:09:08 52° 74° (ENE) 11:13:15 145.880/145.840
YUBILEINY 04 Aug 11:06:50 11:15:22 51° 75° (ENE) 11:23:55 435.215
HUMSAT D 04 Aug 11:10:29 11:14:41 46° 99° (E) 11:18:51 437.325/437.525
AAUSAT CUBESAT 2 04 Aug 11:11:54 11:14:52 18° 292° (WNW) 11:17:42 437.432
FUNcube-1 04 Aug 11:13:24 11:17:57 67° 284° (WNW) 11:22:31 145.935
ESTCUBE 1 04 Aug 11:15:07 11:17:18 14° 90° (E) 11:19:43 437.505/2401.250
Oscar 11 04 Aug 11:20:24 11:24:21 33° 289° (WNW) 11:28:14 145.826/435.025
UKube-1 04 Aug 11:21:57 11:25:54 35° 97° (E) 11:29:53 .
DUCHIFAT 1 04 Aug 11:25:16 11:29:27 84° 79° (E) 11:33:39 145.980
UWE-3 04 Aug 11:25:40 11:29:58 38° 288° (WNW) 11:34:16 435.000/436.395/437.385
UNISAT 6 04 Aug 11:27:55 11:31:53 33° 264° (W) 11:35:56 437.425
NANOSAT C BR1 04 Aug 11:31:06 11:35:17 81° 257° (WSW) 11:39:31 145.865
QB50P1 04 Aug 11:31:24 11:35:36 79° 256° (WSW) 11:39:50 145.935-145.965
O/OREOS (USA 219) 04 Aug 11:34:08 11:38:38 55° 252° (WSW) 11:43:07 437.305
50 SAT 04 Aug 11:36:04 11:39:49 39° 98° (E) 11:43:33 437.505
Cosmos 2491 04 Aug 11:41:18 11:49:17 43° 88° (E) 11:57:23 435.465 / 435.565
CINEMA 3 04 Aug 11:44:41 11:46:20 11° 296° (WNW) 11:47:43 145.822/145.860
AISAT 04 Aug 11:45:57 11:50:11 44° 99° (E) 11:54:26 437.250
CUBEBUG 1 04 Aug 11:49:00 11:52:37 26° 95° (E) 11:56:19 437.445
Cosmos 2504 04 Aug 11:49:15 11:50:40 11° 55° (NE) 11:52:49 435.465 / 435.565
CUBEBUG 2 04 Aug 11:49:44 11:53:02 19° 293° (WNW) 11:56:15 437.445
DX 1 04 Aug 11:55:29 11:59:52 86° 283° (WNW) 12:04:12 434.975-435.025
DELFI C3 04 Aug 12:08:04 12:10:19 14° 294° (WNW) 12:12:24 145.870
SPROUT 04 Aug 12:11:52 12:14:00 14° 90° (E) 12:16:20 437.525
TIGRISAT 04 Aug 12:12:14 12:14:10 12° 272° (W) 12:15:52 435.000
HO-68 04 Aug 12:15:01 12:17:16 11° 308° (NW) 12:19:02 435.675
ANTELSAT 04 Aug 12:16:27 12:17:40 11° 273° (W) 12:18:37 437.575/2403.000
BUGSAT 1 04 Aug 12:16:56 12:20:41 36° 262° (W) 12:24:26 437.445
POLYITAN 1 04 Aug 12:17:30 12:20:55 23° 266° (W) 12:24:17 437.675
AIST 1 04 Aug 12:22:12 12:26:30 60° 280° (W) 12:30:47
VELOX 1 04 Aug 12:23:44 12:28:09 72° 285° (WNW) 12:32:32 145.980
ZACube-1 04 Aug 12:32:10 12:33:43 11° 296° (WNW) 12:35:02 437.345
POPSAT HIP 1 04 Aug 12:33:55 12:36:37 16° 269° (W) 12:39:10 437.405
QB50P2 04 Aug 12:43:31 12:45:24 12° 271° (W) 12:47:05 145.880/145.840
HUMSAT D 04 Aug 12:47:21 12:50:04 16° 293° (WNW) 12:52:36 437.325/437.525
ESTCUBE 1 04 Aug 12:50:11 12:54:34 53° 287° (WNW) 12:58:55 437.505/2401.250
UKube-1 04 Aug 12:58:37 13:01:49 20° 293° (WNW) 13:04:56 .
YUBILEINY 04 Aug 13:04:11 13:11:56 34° 274° (W) 13:19:27 435.215
50 SAT 04 Aug 13:11:39 13:14:05 15° 293° (WNW) 13:16:23 437.505
Gurwin Techsat 1B 04 Aug 13:23:22 13:26:59 19° 64° (ENE) 13:30:45 435.225
AISAT 04 Aug 13:23:31 13:26:27 17° 294° (WNW) 13:29:15 437.250
ITAMSAT 1 04 Aug 13:24:10 13:27:23 17° 64° (ENE) 13:30:48 435.822/435.867
CUBEBUG 1 04 Aug 13:25:18 13:28:56 26° 291° (WNW) 13:32:30 437.445
Oscar 19 04 Aug 13:31:56 13:37:01 73° 75° (ENE) 13:42:10 437.125/150
ITUPSAT 1 04 Aug 13:36:40 13:38:06 11° 88° (E) 13:39:51 437.325
Cosmos 2504 04 Aug 13:36:44 13:45:06 59° 78° (ENE) 13:53:35 435.465 / 435.565
Cosmos 2491 04 Aug 13:38:03 13:46:13 41° 288° (WNW) 13:54:18 435.465 / 435.565
TISAT 1 04 Aug 13:43:00 13:47:14 89° 287° (WNW) 13:51:29 437.305
SPROUT 04 Aug 13:46:14 13:50:24 49° 287° (WNW) 13:54:34 437.525
AO-7 04 Aug 14:01:33 14:06:16 17° 51° (NE) 14:11:23 29.400- 29.500
BEESAT 04 Aug 14:27:55 14:32:26 42° 98° (E) 14:36:57 436.000
CUSAT 1 04 Aug 14:36:13 14:40:32 40° 78° (ENE) 14:46:11 437.405
DANDE 04 Aug 14:43:40 14:47:16 28° 77° (ENE) 14:51:54 436.750
SWISSCUBE 04 Aug 14:48:54 14:53:41 77° 103° (ESE) 14:58:26 437.505
JAS-2 04 Aug 14:57:22 15:03:24 53° 70° (ENE) 15:10:16 435.910
ITAMSAT 1 04 Aug 15:01:18 15:06:27 61° 259° (W) 15:11:38 435.822/435.867
Gurwin Techsat 1B 04 Aug 15:01:22 15:06:35 55° 260° (W) 15:11:48 435.225
ITUPSAT 1 04 Aug 15:11:49 15:16:36 70° 285° (WNW) 15:21:18 437.325
Oscar 19 04 Aug 15:14:48 15:17:02 12° 272° (W) 15:18:57 437.125/150
STARS 04 Aug 15:20:19 15:22:33 14° 90° (E) 15:25:01 437.465
Cosmos 2504 04 Aug 15:29:44 15:36:54 30° 275° (W) 15:43:54 435.465 / 435.565
AO-7 04 Aug 15:49:32 15:57:52 75° 69° (ENE) 16:06:14 29.400- 29.500
GONETS M04 04 Aug 15:49:47 15:56:05 22° 64° (ENE) 16:02:45
KKS-1 04 Aug 15:55:10 15:59:35 59° 100° (E) 16:04:00 437.445
HORYU 2 04 Aug 15:59:20 16:03:46 72° 75° (ENE) 16:08:15 437.375
BEESAT 04 Aug 16:06:27 16:10:01 21° 294° (WNW) 16:13:26 436.000
CUSAT 1 04 Aug 16:19:14 16:23:03 23° 265° (W) 16:27:30 437.405
DANDE 04 Aug 16:26:40 16:30:20 26° 263° (W) 16:34:48 436.750
SWISSCUBE 04 Aug 16:29:03 16:30:58 12° 298° (WNW) 16:32:37 437.505
JAS-2 04 Aug 16:43:47 16:48:58 26° 271° (W) 16:54:29 435.910
SO-50 04 Aug 16:47:02 16:51:18 28° 46° (NE) 16:55:31 436.795
Cosmos 2499 04 Aug 16:49:02 16:52:10 13° 55° (NE) 16:56:00 435.465 / 435.565
VERMONT LUNAR 04 Aug 16:50:12 16:53:01 30° 155° (SSE) 16:55:52 437.305
STARS 04 Aug 16:55:02 16:59:21 51° 287° (WNW) 17:03:39 437.465
CUTE-I 04 Aug 17:00:06 17:02:25 13° 61° (ENE) 17:04:59 437.470
MOZHAYETS 4 04 Aug 17:13:43 17:18:14 50° 99° (E) 17:22:42
PCSat 04 Aug 17:32:50 17:38:06 50° 56° (NE) 17:43:22 145.827
KKS-1 04 Aug 17:33:26 17:35:47 14° 295° (WNW) 17:37:56 437.445
Cubesat XI-IV 04 Aug 17:42:37 17:47:18 32° 68° (ENE) 17:52:03 437.490
AO-7 04 Aug 17:45:05 17:51:31 23° 269° (W) 17:57:36 29.400- 29.500
GONETS M04 04 Aug 17:45:18 17:54:02 77° 265° (W) 18:02:45
PHONESAT 2.4 04 Aug 18:08:14 18:10:48 19° 150° (SSE) 18:13:25 2401.200-2431.200
VERMONT LUNAR 04 Aug 18:26:22 18:29:33 89° 177° (S) 18:32:45 437.305
SO-50 04 Aug 18:27:21 18:31:58 40° 245° (WSW) 18:36:26 436.795
CUTE-I 04 Aug 18:36:29 18:41:52 84° 256° (WSW) 18:47:16 437.470
Cosmos 2499 04 Aug 18:38:44 18:47:29 64° 78° (ENE) 18:56:16 435.465 / 435.565
MOZHAYETS 4 04 Aug 18:52:08 18:55:05 16° 294° (WNW) 18:57:49
BRITE-PL 04 Aug 18:54:09 18:56:39 16° 68° (ENE) 18:59:15 437.365/2234.400
ISS 04 Aug 19:03:06 19:05:20 18° 132° (SE) 19:07:40 145.825
HO-68 04 Aug 19:06:27 19:10:59 19° 57° (ENE) 19:15:50 435.675
PCSat 04 Aug 19:17:03 19:21:12 22° 252° (WSW) 19:25:11 145.827
CUBESAT XI-V 04 Aug 19:18:41 19:23:19 90° 120° (ESE) 19:27:54 437.345
Cubesat XI-IV 04 Aug 19:22:35 19:27:23 32° 264° (W) 19:32:07 437.490
RS-15 04 Aug 19:23:41 19:29:59 19° 101° (E) 19:37:08 29.354- 29.394
PHONESAT 2.4 04 Aug 19:44:56 19:48:25 67° 166° (SSE) 19:51:55 2401.200-2431.200
GONETS M04 04 Aug 19:45:35 19:49:36 13° 283° (WNW) 19:52:57
STRAND 1 04 Aug 19:46:46 19:51:41 48° 99° (E) 19:56:36 437.568
COMPASS 1 04 Aug 19:50:32 19:51:42 11° 65° (ENE) 19:53:06 437.405
DOVE 4 04 Aug 19:50:37 19:53:45 22° 69° (ENE) 19:57:00 437.250
VERMONT LUNAR 04 Aug 20:03:07 20:06:18 88° 1° (N) 20:09:29 437.305
SEEDS 04 Aug 20:09:55 20:13:16 23° 69° (ENE) 20:16:42 437.485
PRISM 04 Aug 20:16:29 20:20:37 84° 100° (E) 20:24:42 437.425
CUTE 1.7 + AOD 2 04 Aug 20:18:46 20:22:40 36° 72° (ENE) 20:26:38 437.475
GOMX 1 04 Aug 20:20:43 20:24:55 83° 77° (ENE) 20:29:05 467.674
AAUSAT CUBESAT 2 04 Aug 20:26:01 20:29:19 23° 69° (ENE) 20:32:43 437.432
CANX-2 04 Aug 20:27:32 20:31:40 51° 74° (ENE) 20:35:52 2200.000
BRITE-PL 04 Aug 20:30:51 20:34:58 41° 262° (W) 20:38:55 437.365/2234.400
Cosmos 2499 04 Aug 20:32:52 20:40:08 28° 276° (W) 20:47:05 435.465 / 435.565
ISS 04 Aug 20:38:24 20:41:33 47° 327° (NNW) 20:44:43 145.825
Oscar 11 04 Aug 20:39:48 20:42:21 16° 66° (ENE) 20:45:04 145.826/435.025
UWE-3 04 Aug 20:47:34 20:49:56 15° 65° (ENE) 20:52:28 435.000/436.395/437.385
HO-68 04 Aug 20:50:48 20:57:57 85° 254° (WSW) 21:05:10 435.675
CINEMA 3 04 Aug 21:06:20 21:10:26 67° 76° (ENE) 21:14:42 145.822/145.860
CUBEBUG 2 04 Aug 21:10:10 21:13:55 33° 71° (ENE) 21:17:49 437.445
DELFI C3 04 Aug 21:18:23 21:21:44 26° 70° (ENE) 21:25:10 145.870
COMPASS 1 04 Aug 21:22:40 21:26:52 66° 259° (W) 21:31:05 437.405
PHONESAT 2.4 04 Aug 21:22:53 21:26:24 80° 1° (N) 21:29:55 2401.200-2431.200
STRAND 1 04 Aug 21:26:50 21:30:35 20° 295° (WNW) 21:34:11 437.568
DOVE 4 04 Aug 21:27:50 21:31:26 28° 265° (W) 21:35:01 437.250
RS-15 04 Aug 21:29:56 21:40:50 84° 119° (ESE) 21:52:10 29.354- 29.394
BEESAT 3 04 Aug 21:38:33 21:39:45 11° 110° (ESE) 21:41:12 437.485
VERMONT LUNAR 04 Aug 21:39:58 21:42:52 32° 203° (SSW) 21:45:44 437.305
SEEDS 04 Aug 21:45:13 21:48:56 28° 265° (W) 21:52:38 437.485
ZACube-1 04 Aug 21:48:38 21:52:44 53° 74° (ENE) 21:56:57 437.345
Cosmos 2491 04 Aug 21:53:01 21:58:50 20° 62° (ENE) 22:05:03 435.465 / 435.565
CUTE 1.7 + AOD 2 04 Aug 21:55:40 21:58:44 18° 268° (W) 22:01:41 437.475
AAUSAT CUBESAT 2 04 Aug 22:01:09 22:04:49 28° 265° (W) 22:08:26 437.432
HUMSAT D 04 Aug 22:01:46 22:05:21 29° 71° (ENE) 22:09:03 437.325/437.525
CANX-2 04 Aug 22:05:48 22:07:57 13° 271° (W) 22:09:55 2200.000
FUNcube-1 04 Aug 22:08:17 22:12:30 87° 78° (ENE) 22:16:51 145.935
Oscar 11 04 Aug 22:14:00 22:18:11 46° 261° (W) 22:22:24 145.826/435.025
ESTCUBE 1 04 Aug 22:14:53 22:16:53 13° 64° (ENE) 22:19:06 437.505/2401.250
UKube-1 04 Aug 22:16:17 22:19:56 28° 69° (ENE) 22:23:40 .
ISS 04 Aug 22:16:50 22:18:37 14° 347° (NNW) 22:20:23 145.825
50 SAT 04 Aug 22:19:42 22:22:35 21° 69° (ENE) 22:25:35 437.505
UWE-3 04 Aug 22:22:00 22:26:05 47° 262° (W) 22:30:16 435.000/436.395/437.385
TIGRISAT 04 Aug 22:26:30 22:28:45 14° 89° (E) 22:31:16 435.000
ANTELSAT 04 Aug 22:29:45 22:32:29 16° 90° (E) 22:35:24 437.575/2403.000
AIST 1 04 Aug 22:30:18 22:33:59 28° 75° (ENE) 22:37:42
M-CUBED/EXP-1 PRIME 04 Aug 22:31:07 22:35:42 44° 102° (ESE) 22:40:05 437.505
BEESAT 2 04 Aug 22:39:41 22:43:31 42° 117° (ESE) 22:47:27 435.950
AISAT 04 Aug 22:43:06 22:47:07 36° 71° (ENE) 22:51:10 437.250
HO-68 04 Aug 22:43:17 22:46:52 14° 274° (W) 22:49:56 435.675
CUBEBUG 1 04 Aug 22:44:56 22:48:11 21° 68° (ENE) 22:51:30 437.445
CUBEBUG 2 04 Aug 22:47:35 22:50:44 20° 268° (W) 22:53:51 437.445
DX 1 04 Aug 22:50:10 22:54:30 75° 76° (ENE) 22:58:51 434.975-435.025
DELFI C3 04 Aug 22:53:26 22:56:46 23° 266° (W) 23:00:03 145.870
AUBIESAT-1 04 Aug 22:56:18 23:01:01 70° 105° (ESE) 23:05:31 437.475
PHONESAT 2.4 04 Aug 23:00:53 23:04:20 55° 198° (SSW) 23:07:46 2401.200-2431.200
AIST 2 04 Aug 23:04:05 23:06:46 17° 111° (ESE) 23:09:37 435.215
SPROUT 04 Aug 23:07:12 23:08:00 11° 64° (ENE) 23:09:03 437.525
DUCHIFAT 1 04 Aug 23:12:01 23:14:12 14° 90° (E) 23:16:34 145.980
BEESAT 3 04 Aug 23:13:13 23:17:14 62° 304° (NW) 23:21:19 437.485
NANOSAT C BR1 04 Aug 23:17:36 23:20:20 17° 92° (E) 23:23:12 145.865
QB50P1 04 Aug 23:18:05 23:20:53 17° 92° (E) 23:23:50 145.935-145.965
UNISAT 6 04 Aug 23:19:44 23:24:21 52° 99° (E) 23:28:58 437.425
VELOX 1 04 Aug 23:20:21 23:24:46 89° 264° (W) 23:29:12 145.980
ZACube-1 04 Aug 23:27:37 23:29:32 12° 272° (W) 23:31:14 437.345
HUMSAT D 04 Aug 23:37:51 23:41:08 22° 267° (W) 23:44:21 437.325/437.525
RS-15 04 Aug 23:45:03 23:54:47 33° 326° (NNW) 00:04:42 29.354- 29.394
Cosmos 2491 04 Aug 23:48:15 23:57:00 84° 264° (W) 00:05:44 435.465 / 435.565
ESTCUBE 1 04 Aug 23:48:47 23:53:16 63° 259° (W) 23:57:47 437.505/2401.250
UKube-1 04 Aug 23:52:30 23:56:03 24° 265° (W) 23:59:33 .
50 SAT 04 Aug 23:53:38 23:57:01 27° 265° (W) 00:00:24 437.505
ISS 04 Aug 23:54:58 23:56:08 11° 7° (N) 23:57:20 145.825
BUGSAT 1 04 Aug 23:59:29 00:03:06 30° 96° (E) 00:06:46 437.445
TIGRISAT 05 Aug 00:01:17 00:05:56 59° 286° (WNW) 00:10:34 435.000
POLYITAN 1 05 Aug 00:02:22 00:06:37 57° 100° (E) 00:10:50 437.675
ANTELSAT 05 Aug 00:05:00 00:09:37 52° 286° (WNW) 00:14:10 437.575/2403.000
M-CUBED/EXP-1 PRIME 05 Aug 00:06:29 00:10:09 22° 299° (WNW) 00:13:36 437.505
YUBILEINY 05 Aug 00:06:35 00:15:01 60° 92° (E) 00:23:36 435.215
O/OREOS (USA 219) 05 Aug 00:07:59 00:10:55 18° 101° (ESE) 00:14:01 437.305
AIST 1 05 Aug 00:08:15 00:11:30 21° 271° (W) 00:14:38
POPSAT HIP 1 05 Aug 00:17:38 00:21:56 84° 102° (ESE) 00:26:13 437.405
BEESAT 2 05 Aug 00:18:41 00:21:47 20° 314° (NW) 00:24:50 435.950
CUBEBUG 1 05 Aug 00:20:25 00:24:21 33° 263° (W) 00:28:16 437.445
AISAT 05 Aug 00:20:37 00:23:50 19° 267° (W) 00:26:56 437.250
QB50P2 05 Aug 00:26:27 00:30:44 74° 285° (WNW) 00:35:00 145.880/145.840
AUBIESAT-1 05 Aug 00:32:34 00:35:09 14° 302° (WNW) 00:37:30 437.475
TISAT 1 05 Aug 00:34:13 00:38:19 60° 75° (ENE) 00:42:27 437.305
SPROUT 05 Aug 00:39:19 00:43:33 71° 259° (WSW) 00:47:50 437.525
PHONESAT 2.4 05 Aug 00:39:48 00:41:52 15° 213° (SSW) 00:43:52 2401.200-2431.200
AIST 2 05 Aug 00:40:56 00:45:02 45° 306° (NW) 00:49:09 435.215
ITUPSAT 1 05 Aug 00:42:45 00:45:09 14° 63° (ENE) 00:47:46 437.325
DUCHIFAT 1 05 Aug 00:46:12 00:50:18 47° 287° (WNW) 00:54:23 145.980
NANOSAT C BR1 05 Aug 00:52:22 00:56:22 39° 288° (WNW) 01:00:19 145.865
QB50P1 05 Aug 00:52:57 00:56:56 38° 288° (WNW) 01:00:52 145.935-145.965
UNISAT 6 05 Aug 00:57:42 01:00:45 17° 294° (WNW) 01:03:37 437.425
ISS 05 Aug 01:30:35 01:33:25 27° 26° (NNE) 01:36:16 145.825
BEESAT 05 Aug 01:33:37 01:38:10 45° 71° (ENE) 01:42:45 436.000
BUGSAT 1 05 Aug 01:35:17 01:38:25 21° 291° (WNW) 01:41:28 437.445
POLYITAN 1 05 Aug 01:40:00 01:42:05 13° 295° (WNW) 01:43:58 437.675
Oscar 19 05 Aug 01:44:37 01:48:56 27° 94° (E) 01:53:23 437.125/150
O/OREOS (USA 219) 05 Aug 01:45:48 01:50:03 41° 297° (WNW) 01:54:20 437.305
Cosmos 2491 05 Aug 01:47:54 01:52:42 15° 281° (WNW) 01:56:55 435.465 / 435.565
SWISSCUBE 05 Aug 01:54:34 01:59:22 81° 75° (ENE) 02:04:11 437.505
RS-15 05 Aug 02:04:36 02:12:12 19° 0° (N) 02:20:02 29.354- 29.394
YUBILEINY 05 Aug 02:05:01 02:12:29 29° 293° (WNW) 02:19:46 435.215
Cosmos 2504 05 Aug 02:06:54 02:13:28 41° 88° (E) 02:20:35 435.465 / 435.565
TISAT 1 05 Aug 02:13:42 02:14:33 10° 272° (W) 02:15:09 437.305
STARS 05 Aug 02:17:36 02:19:18 12° 64° (ENE) 02:21:13 437.465
ITUPSAT 1 05 Aug 02:17:47 02:22:33 66° 258° (WSW) 02:27:22 437.325
KKS-1 05 Aug 02:52:35 02:56:50 48° 73° (ENE) 03:01:07 437.445
ISS 05 Aug 03:06:51 03:09:55 38° 224° (SW) 03:12:57 145.825
BEESAT 05 Aug 03:12:53 03:16:16 18° 268° (W) 03:19:30 436.000
ITAMSAT 1 05 Aug 03:14:49 03:19:50 50° 99° (E) 03:24:52 435.822/435.867
Gurwin Techsat 1B 05 Aug 03:18:05 03:23:22 63° 101° (E) 03:28:38 435.225
Oscar 19 05 Aug 03:23:39 03:28:22 35° 291° (WNW) 03:33:02 437.125/150
CUSAT 1 05 Aug 03:45:30 03:47:52 27° 96° (E) 03:50:10 437.405
STARS 05 Aug 03:50:57 03:55:16 63° 259° (WSW) 03:59:37 437.465
JAS-2 05 Aug 03:51:43 03:59:25 56° 98° (E) 04:06:51 435.910
HORYU 2 05 Aug 03:52:41 03:55:06 15° 90° (E) 03:57:42 437.375
AO-7 05 Aug 03:53:00 03:59:21 25° 92° (E) 04:05:58 29.400- 29.500
DANDE 05 Aug 03:57:08 03:59:33 23° 97° (E) 04:01:47 436.750
Cosmos 2504 05 Aug 03:59:10 04:05:46 36° 289° (WNW) 04:12:44 435.465 / 435.565
MOZHAYETS 4 05 Aug 04:14:49 04:19:12 44° 72° (ENE) 04:23:39
RS-15 05 Aug 04:19:35 04:29:41 33° 34° (NE) 04:40:22 29.354- 29.394
KKS-1 05 Aug 04:31:14 04:33:48 15° 270° (W) 04:36:11 437.445
GONETS M04 05 Aug 04:51:00 04:57:31 26° 83° (E) 05:04:21
ITAMSAT 1 05 Aug 04:55:15 04:59:01 20° 295° (WNW) 05:02:38 435.822/435.867
Gurwin Techsat 1B 05 Aug 04:59:27 05:02:54 17° 297° (WNW) 05:06:08 435.225
HORYU 2 05 Aug 05:27:42 05:32:05 50° 287° (WNW) 05:36:25 437.375
JAS-2 05 Aug 05:37:14 05:44:05 33° 296° (WNW) 05:50:38 435.910
AO-7 05 Aug 05:44:36 05:52:54 70° 291° (WNW) 06:01:06 29.400- 29.500
MOZHAYETS 4 05 Aug 05:53:29 05:56:41 18° 269° (W) 05:59:44
Cubesat XI-IV 05 Aug 06:02:15 06:04:17 12° 88° (E) 06:06:41 437.490
CUBESAT XI-V 05 Aug 06:21:04 06:25:45 81° 77° (ENE) 06:30:25 437.345
RS-15 05 Aug 06:31:58 06:43:51 88° 239° (WSW) 06:56:07 29.354- 29.394
GONETS M04 05 Aug 06:45:06 06:53:44 66° 281° (WNW) 07:02:23
CUTE-I 05 Aug 06:54:30 06:59:29 41° 98° (E) 07:04:29 437.470
BEESAT 2 05 Aug 06:59:32 07:02:49 23° 47° (NE) 07:06:05 435.950
STRAND 1 05 Aug 07:01:50 07:06:55 65° 74° (ENE) 07:12:02 437.568
PRISM 05 Aug 07:05:31 07:09:35 55° 74° (ENE) 07:13:42 437.425
